SAS86G EDDL-ENGM

Flight info

Callsign SAS86G
Flight time 1h 30m
Altitude 35000
Route MEVEL1Z MEVEL L179 OSNAD M170 BASUM DCT DOSUR/N0433F360 DCT AMSEV/N0439F370 DCT PIPEX DCT ULMUG DCT RIPAM
Aircraft E195/M-SDE3GILORVW/S

Departure

Time 2026-05-05 20:33
Airport Düsseldorf Airport (EDDL)

Arrival

Time 2026-05-05 22:03
Airport Oslo-Gardermoen International Airport (ENGM)
Time Latitude Longitude Altitude Speed Heading
2026-05-05 20:15 51.28069 6.76528 153 ft 0 kts 97°
2026-05-05 20:24 51.28068 6.76528 153 ft 0 kts 97°
2026-05-05 20:24 51.28069 6.76523 153 ft 2 kts 97°
2026-05-05 20:25 51.28071 6.76499 153 ft 2 kts 97°
2026-05-05 20:25 51.28073 6.76475 153 ft 2 kts 97°
2026-05-05 20:25 51.28075 6.76445 153 ft 2 kts 109°
2026-05-05 20:25 51.28081 6.76431 153 ft 2 kts 142°
2026-05-05 20:26 51.28094 6.76421 153 ft 2 kts 164°
2026-05-05 20:26 51.28114 6.76418 153 ft 2 kts 188°
2026-05-05 20:26 51.28124 6.76420 153 ft 2 kts 187°
2026-05-05 20:26 51.28127 6.76421 153 ft 0 kts 187°
2026-05-05 20:28 51.28125 6.76420 153 ft 0 kts 197°
2026-05-05 20:28 51.28123 6.76413 153 ft 1 kts 262°
2026-05-05 20:29 51.28125 6.76381 153 ft 4 kts 285°
2026-05-05 20:29 51.28143 6.76320 153 ft 7 kts 297°
2026-05-05 20:29 51.28178 6.76252 153 ft 8 kts 333°
2026-05-05 20:29 51.28193 6.76157 153 ft 11 kts 240°
2026-05-05 20:30 51.28137 6.76036 153 ft 14 kts 233°
2026-05-05 20:30 51.28073 6.75900 153 ft 15 kts 232°
2026-05-05 20:30 51.28004 6.75757 153 ft 16 kts 233°
2026-05-05 20:30 51.27938 6.75617 153 ft 9 kts 232°
2026-05-05 20:31 51.27902 6.75542 153 ft 9 kts 231°
2026-05-05 20:31 51.27861 6.75458 153 ft 9 kts 233°
2026-05-05 20:31 51.27848 6.75355 153 ft 10 kts 307°
2026-05-05 20:31 51.27913 6.75293 153 ft 11 kts 333°
2026-05-05 20:32 51.27990 6.75285 153 ft 12 kts 29°
2026-05-05 20:32 51.28051 6.75389 153 ft 18 kts 54°
2026-05-05 20:32 51.28290 6.75892 153 ft 91 kts 52°
2026-05-05 20:32 51.28796 6.76953 153 ft 147 kts 53°
2026-05-05 20:33 51.29456 6.78386 443 ft 168 kts 52°
2026-05-05 20:33 51.30174 6.79939 984 ft 183 kts 51°
2026-05-05 20:33 51.30914 6.81480 1998 ft 178 kts 52°
2026-05-05 20:33 51.31687 6.83092 2689 ft 191 kts 53°
2026-05-05 20:34 51.32527 6.84848 3260 ft 212 kts 53°
2026-05-05 20:34 51.33485 6.86904 3625 ft 244 kts 55°
2026-05-05 20:34 51.34513 6.89165 4339 ft 260 kts 49°
2026-05-05 20:34 51.36045 6.90689 5249 ft 268 kts 15°
2026-05-05 20:35 51.37872 6.91212 6261 ft 271 kts 10°
2026-05-05 20:35 51.39694 6.91690 7211 ft 273 kts 10°
2026-05-05 20:35 51.42219 6.92360 8409 ft 278 kts 10°
2026-05-05 20:35 51.43498 6.92700 8988 ft 280 kts 10°
2026-05-05 20:36 51.45423 6.93213 9829 ft 284 kts 10°
2026-05-05 20:36 51.47361 6.93730 10627 ft 289 kts 10°
2026-05-05 20:36 51.49394 6.94228 11287 ft 298 kts
2026-05-05 20:36 51.51492 6.93862 11845 ft 311 kts 351°
2026-05-05 20:37 51.53674 6.93253 12445 ft 322 kts 351°
2026-05-05 20:37 51.55887 6.92635 13110 ft 329 kts 351°
2026-05-05 20:37 51.58170 6.91997 13865 ft 333 kts 351°
2026-05-05 20:37 51.60462 6.91356 14629 ft 337 kts 351°
2026-05-05 20:38 51.62746 6.90717 15322 ft 342 kts 350°
2026-05-05 20:38 51.65109 6.90055 15993 ft 347 kts 350°
2026-05-05 20:38 51.67505 6.89393 16614 ft 353 kts 353°
2026-05-05 20:38 51.69951 6.89693 17204 ft 358 kts 19°
2026-05-05 20:39 51.72079 6.91676 17784 ft 360 kts 46°
2026-05-05 20:39 51.73623 6.94810 18402 ft 362 kts 56°
2026-05-05 20:39 51.75110 6.98123 19078 ft 365 kts 56°
2026-05-05 20:39 51.76599 7.01405 19708 ft 370 kts 56°
2026-05-05 20:40 51.78136 7.04781 20339 ft 375 kts 56°
2026-05-05 20:40 51.79664 7.08140 20995 ft 377 kts 56°
2026-05-05 20:40 51.81235 7.11594 21646 ft 380 kts 56°
2026-05-05 20:40 51.82781 7.14996 22244 ft 384 kts 56°
2026-05-05 20:41 51.84378 7.18517 22846 ft 387 kts 56°
2026-05-05 20:41 51.85855 7.22107 23417 ft 388 kts 64°
2026-05-05 20:41 51.87129 7.25987 23984 ft 392 kts 65°
2026-05-05 20:41 51.88828 7.31192 24766 ft 397 kts 65°
2026-05-05 20:42 51.89673 7.33787 25135 ft 399 kts 65°
2026-05-05 20:42 51.90977 7.37791 25739 ft 402 kts 65°
2026-05-05 20:42 51.92279 7.41796 26307 ft 406 kts 65°
2026-05-05 20:42 51.93591 7.45840 26862 ft 409 kts 65°
2026-05-05 20:43 51.94916 7.49927 27419 ft 412 kts 65°
2026-05-05 20:43 51.96238 7.54004 27995 ft 415 kts 65°
2026-05-05 20:43 51.97595 7.58198 28543 ft 418 kts 65°
2026-05-05 20:43 51.98929 7.62327 29075 ft 421 kts 66°
2026-05-05 20:44 52.00301 7.66584 29611 ft 424 kts 67°
2026-05-05 20:44 52.01658 7.70798 30103 ft 428 kts 67°
2026-05-05 20:44 52.03049 7.75127 30581 ft 432 kts 67°
2026-05-05 20:44 52.04900 7.80897 31139 ft 439 kts 67°
2026-05-05 20:45 52.07259 7.88277 31879 ft 445 kts 67°
2026-05-05 20:45 52.08669 7.92695 32381 ft 446 kts 68°
2026-05-05 20:45 52.10104 7.97200 32986 ft 446 kts 68°
2026-05-05 20:46 52.11515 8.01634 33557 ft 444 kts 68°
2026-05-05 20:46 52.12920 8.06063 34196 ft 441 kts 69°
2026-05-05 20:46 52.14329 8.10510 34702 ft 441 kts 69°
2026-05-05 20:46 52.15716 8.14898 34794 ft 440 kts 69°
2026-05-05 20:47 52.18723 8.23853 34834 ft 467 kts 60°
2026-05-05 20:47 52.20799 8.28018 34850 ft 483 kts 51°
2026-05-05 20:47 52.23253 8.31742 34842 ft 492 kts 42°
2026-05-05 20:48 52.29211 8.37344 34855 ft 504 kts 23°
2026-05-05 20:48 52.35551 8.42109 34856 ft 499 kts 30°
2026-05-05 20:49 52.41664 8.47412 34855 ft 500 kts 31°
2026-05-05 20:49 52.48792 8.53672 34859 ft 500 kts 30°
2026-05-05 20:50 52.53857 8.58136 34864 ft 500 kts 30°
2026-05-05 20:50 52.59993 8.63559 34871 ft 502 kts 30°
2026-05-05 20:51 52.66147 8.69011 34868 ft 503 kts 31°
2026-05-05 20:51 52.72273 8.74458 34874 ft 502 kts 30°
2026-05-05 20:52 52.78675 8.78851 34882 ft 504 kts 15°
2026-05-05 20:52 52.85607 8.80455 34887 ft 504 kts
2026-05-05 20:53 52.92542 8.81703 34882 ft 504 kts
2026-05-05 20:53 52.99517 8.83002 34892 ft 504 kts
2026-05-05 20:54 53.06434 8.84296 34890 ft 504 kts
2026-05-05 20:54 53.13353 8.85596 34880 ft 503 kts
2026-05-05 20:55 53.20288 8.86902 34885 ft 502 kts
2026-05-05 20:55 53.27219 8.88211 34880 ft 502 kts
2026-05-05 20:56 53.34103 8.89517 34885 ft 501 kts
2026-05-05 20:56 53.41019 8.90833 34895 ft 499 kts
2026-05-05 20:57 53.47897 8.92145 34897 ft 499 kts
2026-05-05 20:57 53.54742 8.93456 34895 ft 498 kts
2026-05-05 20:58 53.61591 8.94772 34902 ft 495 kts
2026-05-05 20:58 53.68430 8.96089 34904 ft 497 kts
2026-05-05 20:59 53.75261 8.97411 34908 ft 496 kts
2026-05-05 20:59 53.83195 8.98950 34908 ft 494 kts
2026-05-05 21:00 53.88864 9.00054 34912 ft 494 kts
2026-05-05 21:00 53.95678 9.01384 34905 ft 492 kts
2026-05-05 21:01 54.02469 9.02715 34912 ft 492 kts
2026-05-05 21:01 54.09237 9.04045 34931 ft 490 kts
2026-05-05 21:02 54.15984 9.05376 34924 ft 490 kts
2026-05-05 21:02 54.22758 9.06715 34924 ft 490 kts
2026-05-05 21:03 54.29505 9.08054 34930 ft 490 kts
2026-05-05 21:03 54.36264 9.09400 34928 ft 490 kts
2026-05-05 21:04 54.42978 9.10741 34931 ft 489 kts
2026-05-05 21:04 54.49708 9.12092 34933 ft 487 kts
2026-05-05 21:05 54.56417 9.13440 34938 ft 488 kts
2026-05-05 21:05 54.63101 9.14790 34938 ft 485 kts
2026-05-05 21:06 54.69785 9.16143 34935 ft 484 kts
2026-05-05 21:06 54.76452 9.17497 34941 ft 485 kts
2026-05-05 21:07 54.83121 9.18856 34938 ft 482 kts
2026-05-05 21:07 54.89741 9.18936 34945 ft 473 kts 349°
2026-05-05 21:08 54.96266 9.18070 34932 ft 473 kts 349°
2026-05-05 21:08 55.02805 9.17217 34930 ft 470 kts 349°
2026-05-05 21:09 55.09301 9.16368 34939 ft 471 kts 349°
2026-05-05 21:09 55.15813 9.15515 34936 ft 471 kts 349°
2026-05-05 21:10 55.22304 9.14662 34938 ft 470 kts 350°
2026-05-05 21:10 55.28813 9.13803 34938 ft 470 kts 350°
2026-05-05 21:11 55.35372 9.12935 34944 ft 470 kts 349°
2026-05-05 21:11 55.41821 9.12078 34942 ft 469 kts 350°
2026-05-05 21:12 55.48360 9.11207 34939 ft 469 kts 350°
2026-05-05 21:12 55.54836 9.10342 34954 ft 469 kts 350°
2026-05-05 21:13 55.61297 9.09475 34951 ft 469 kts 350°
2026-05-05 21:13 55.67792 9.08601 34950 ft 467 kts 350°
2026-05-05 21:14 55.74227 9.07732 34952 ft 468 kts 350°
2026-05-05 21:14 55.80696 9.06856 34960 ft 467 kts 350°
2026-05-05 21:15 55.87170 9.05976 34958 ft 468 kts 350°
2026-05-05 21:15 55.93593 9.05100 34961 ft 468 kts 351°
2026-05-05 21:16 56.00079 9.04213 34964 ft 468 kts 350°
2026-05-05 21:16 56.06544 9.03325 34966 ft 468 kts 350°
2026-05-05 21:17 56.12996 9.02437 34960 ft 467 kts 350°
2026-05-05 21:17 56.19426 9.01548 34963 ft 466 kts 350°
2026-05-05 21:18 56.25869 9.00654 34963 ft 466 kts 350°
2026-05-05 21:18 56.32305 8.99759 34964 ft 465 kts 350°
2026-05-05 21:19 56.38761 8.98858 34962 ft 465 kts 350°
2026-05-05 21:19 56.45160 8.97961 34962 ft 467 kts 349°
2026-05-05 21:20 56.51606 8.97056 34967 ft 466 kts 349°
2026-05-05 21:20 56.58065 8.96144 34964 ft 465 kts 349°
2026-05-05 21:21 56.64464 8.95239 34960 ft 464 kts 349°
2026-05-05 21:21 56.70875 8.94328 34967 ft 465 kts 349°
2026-05-05 21:22 56.77289 8.93414 34965 ft 464 kts 349°
2026-05-05 21:22 56.83695 8.92499 34963 ft 463 kts 349°
2026-05-05 21:23 56.90087 8.91580 34967 ft 464 kts 349°
2026-05-05 21:23 56.96482 8.90661 34963 ft 464 kts 349°
2026-05-05 21:24 57.02933 8.89728 34968 ft 466 kts 349°
2026-05-05 21:24 57.09323 8.88802 34967 ft 465 kts 349°
2026-05-05 21:25 57.15780 8.87863 34956 ft 463 kts 348°
2026-05-05 21:25 57.22138 8.86935 34956 ft 462 kts 348°
2026-05-05 21:26 57.28525 8.85999 34955 ft 463 kts 348°
2026-05-05 21:26 57.34913 8.85060 34960 ft 462 kts 348°
2026-05-05 21:27 57.41299 8.84118 34947 ft 463 kts 348°
2026-05-05 21:27 57.47690 8.83172 34937 ft 463 kts 348°
2026-05-05 21:28 57.54087 8.82221 34935 ft 464 kts 348°
2026-05-05 21:28 57.60517 8.81263 34928 ft 464 kts 348°
2026-05-05 21:29 57.66892 8.80368 34945 ft 465 kts 352°
2026-05-05 21:29 57.73409 8.81372 34939 ft 473 kts 359°
2026-05-05 21:30 57.79917 8.82679 34932 ft 474 kts 359°
2026-05-05 21:30 57.86446 8.83985 34924 ft 473 kts 359°
2026-05-05 21:31 57.92983 8.85296 34930 ft 473 kts 359°
2026-05-05 21:31 57.99491 8.86608 34929 ft 472 kts 359°
2026-05-05 21:32 58.05960 8.87915 34921 ft 471 kts 359°
2026-05-05 21:32 58.12494 8.89239 34922 ft 472 kts 359°
2026-05-05 21:33 58.18965 8.90557 34921 ft 472 kts 359°
2026-05-05 21:33 58.25461 8.91885 34923 ft 470 kts 359°
2026-05-05 21:34 58.31976 8.93220 34920 ft 471 kts 359°
2026-05-05 21:34 58.38384 8.94544 34912 ft 457 kts 358°
2026-05-05 21:35 58.44620 8.95829 34922 ft 452 kts 358°
2026-05-05 21:35 58.50858 8.97121 34922 ft 454 kts 358°
2026-05-05 21:36 58.57147 8.98430 34916 ft 453 kts 358°
2026-05-05 21:36 58.63384 8.99733 34912 ft 453 kts 358°
2026-05-05 21:37 58.69602 9.01036 34906 ft 453 kts 358°
2026-05-05 21:37 58.75849 9.02350 34901 ft 452 kts 358°
2026-05-05 21:38 58.82097 9.04042 34900 ft 462 kts
2026-05-05 21:38 58.88047 9.08940 34910 ft 478 kts 26°
2026-05-05 21:39 58.93276 9.17129 34911 ft 486 kts 34°
2026-05-05 21:39 58.98456 9.25316 34917 ft 485 kts 32°
2026-05-05 21:40 59.03732 9.33501 34907 ft 485 kts 32°
2026-05-05 21:40 59.08963 9.41635 34896 ft 485 kts 32°
2026-05-05 21:41 59.14215 9.49835 34878 ft 484 kts 32°
2026-05-05 21:41 59.19490 9.57924 34876 ft 481 kts 27°
2026-05-05 21:42 59.25046 9.65033 34909 ft 481 kts 27°
2026-05-05 21:42 59.27849 9.68636 34793 ft 485 kts 27°
2026-05-05 21:42 59.30700 9.72309 33374 ft 496 kts 27°
2026-05-05 21:43 59.33470 9.76089 31946 ft 498 kts 32°
2026-05-05 21:43 59.36156 9.80354 30419 ft 496 kts 32°
2026-05-05 21:43 59.38797 9.84559 28850 ft 492 kts 32°
2026-05-05 21:43 59.41415 9.88733 27290 ft 486 kts 32°
2026-05-05 21:44 59.43990 9.92848 25759 ft 480 kts 32°
2026-05-05 21:44 59.46563 9.96967 24243 ft 473 kts 32°
2026-05-05 21:44 59.49048 10.00953 22821 ft 465 kts 32°
2026-05-05 21:44 59.51508 10.04908 21981 ft 440 kts 32°
2026-05-05 21:45 59.53770 10.08561 21889 ft 402 kts 32°
2026-05-05 21:45 59.55837 10.11897 21881 ft 376 kts 31°
2026-05-05 21:45 59.57871 10.15172 21855 ft 370 kts 31°
2026-05-05 21:45 59.59808 10.18307 21291 ft 359 kts 31°
2026-05-05 21:46 59.61734 10.21420 20438 ft 357 kts 31°
2026-05-05 21:46 59.63596 10.24445 20027 ft 341 kts 31°
2026-05-05 21:46 59.65393 10.27360 19416 ft 336 kts 31°
2026-05-05 21:46 59.67192 10.30281 18640 ft 333 kts 32°
2026-05-05 21:47 59.68947 10.33137 17939 ft 329 kts 32°
2026-05-05 21:47 59.70696 10.35987 17150 ft 326 kts 33°
2026-05-05 21:47 59.72536 10.38447 16269 ft 313 kts 12°
2026-05-05 21:47 59.74576 10.38904 15482 ft 290 kts 342°
2026-05-05 21:48 59.76369 10.37498 14671 ft 278 kts 324°
2026-05-05 21:48 59.77967 10.35360 13797 ft 275 kts 321°
2026-05-05 21:48 59.79471 10.33076 12916 ft 275 kts 319°
2026-05-05 21:48 59.80933 10.30720 12045 ft 274 kts 319°
2026-05-05 21:49 59.82455 10.28479 11145 ft 275 kts 335°
2026-05-05 21:49 59.84165 10.27170 10932 ft 250 kts 338°
2026-05-05 21:49 59.85767 10.25983 10866 ft 241 kts 338°
2026-05-05 21:49 59.87342 10.24818 10871 ft 243 kts 338°
2026-05-05 21:50 59.88932 10.23641 10925 ft 245 kts 338°
2026-05-05 21:50 59.90538 10.22453 10924 ft 247 kts 338°
2026-05-05 21:50 59.92162 10.21428 10889 ft 248 kts 353°
2026-05-05 21:50 59.93874 10.21312 10917 ft 248 kts 358°
2026-05-05 21:51 59.95606 10.21272 10931 ft 248 kts 358°
2026-05-05 21:51 59.97314 10.21237 10921 ft 248 kts 358°
2026-05-05 21:51 59.99045 10.21204 10923 ft 248 kts 359°
2026-05-05 21:51 60.00685 10.22047 10939 ft 251 kts 33°
2026-05-05 21:52 60.01952 10.28333 10313 ft 263 kts 99°
2026-05-05 21:52 60.01594 10.31888 9939 ft 259 kts 99°
2026-05-05 21:52 60.01265 10.35385 9596 ft 255 kts 99°
2026-05-05 21:53 60.00955 10.38859 9283 ft 250 kts 98°
2026-05-05 21:53 60.00662 10.42209 8988 ft 247 kts 98°
2026-05-05 21:53 60.00369 10.45599 8687 ft 246 kts 98°
2026-05-05 21:53 60.00079 10.48976 8401 ft 245 kts 98°
2026-05-05 21:54 59.99793 10.52290 8115 ft 244 kts 98°
2026-05-05 21:54 59.99506 10.55618 7834 ft 243 kts 98°
2026-05-05 21:54 59.99221 10.58927 7542 ft 241 kts 98°
2026-05-05 21:54 59.98937 10.62204 7247 ft 238 kts 98°
2026-05-05 21:55 59.98660 10.65397 7012 ft 232 kts 99°
2026-05-05 21:55 59.98385 10.68552 6750 ft 227 kts 99°
2026-05-05 21:55 59.98117 10.71611 6487 ft 223 kts 99°
2026-05-05 21:55 59.97854 10.74623 6231 ft 218 kts 99°
2026-05-05 21:56 59.97596 10.77554 5981 ft 215 kts 99°
2026-05-05 21:56 59.97440 10.80462 5716 ft 209 kts 79°
2026-05-05 21:56 59.97749 10.83242 5516 ft 203 kts 76°
2026-05-05 21:56 59.98082 10.85965 5337 ft 195 kts 76°
2026-05-05 21:57 59.98398 10.88531 5122 ft 189 kts 76°
2026-05-05 21:57 59.98706 10.91024 4880 ft 185 kts 76°
2026-05-05 21:57 59.99012 10.93503 4664 ft 184 kts 76°
2026-05-05 21:57 59.99507 10.95791 4463 ft 184 kts 44°
2026-05-05 21:58 60.00624 10.97072 4344 ft 185 kts 25°
2026-05-05 21:58 60.01847 10.97901 4177 ft 188 kts 16°
2026-05-05 21:58 60.03103 10.98590 3954 ft 189 kts 16°
2026-05-05 21:58 60.04368 10.99299 3699 ft 188 kts 16°
2026-05-05 21:59 60.05582 10.99985 3442 ft 173 kts 17°
2026-05-05 21:59 60.06658 11.00597 3251 ft 154 kts 17°
2026-05-05 21:59 60.07648 11.01162 3015 ft 139 kts 17°
2026-05-05 21:59 60.08532 11.01666 2787 ft 129 kts 17°
2026-05-05 22:00 60.09392 11.02157 2615 ft 129 kts 17°
2026-05-05 22:00 60.10264 11.02655 2447 ft 131 kts 17°
2026-05-05 22:00 60.11151 11.03161 2270 ft 132 kts 16°
2026-05-05 22:00 60.12047 11.03672 2078 ft 133 kts 16°
2026-05-05 22:01 60.12936 11.04182 1891 ft 133 kts 16°
2026-05-05 22:01 60.13826 11.04693 1703 ft 133 kts 15°
2026-05-05 22:01 60.14715 11.05203 1518 ft 131 kts 16°
2026-05-05 22:01 60.15581 11.05701 1336 ft 130 kts 15°
2026-05-05 22:02 60.16447 11.06198 1156 ft 129 kts 15°
2026-05-05 22:02 60.17321 11.06693 952 ft 129 kts 15°
2026-05-05 22:02 60.18170 11.07170 783 ft 128 kts 17°
2026-05-05 22:02 60.19023 11.07675 688 ft 123 kts 15°
2026-05-05 22:03 60.19693 11.08063 686 ft 77 kts 15°
2026-05-05 22:03 60.20063 11.08280 686 ft 30 kts 21°
2026-05-05 22:03 60.20223 11.08467 686 ft 19 kts 50°
2026-05-05 22:03 60.20247 11.08626 686 ft 11 kts 101°
2026-05-05 22:04 60.20242 11.08663 686 ft 0 kts 105°
2026-05-05 22:13 60.20241 11.08671 686 ft 1 kts 105°
2026-05-05 22:13 60.20235 11.08717 686 ft 4 kts 106°
2026-05-05 22:13 60.20222 11.08802 686 ft 7 kts 105°
2026-05-05 22:14 60.20185 11.08899 686 ft 10 kts 170°
2026-05-05 22:14 60.20097 11.08858 686 ft 15 kts 196°
2026-05-05 22:14 60.19982 11.08792 686 ft 19 kts 195°
2026-05-05 22:14 60.19849 11.08715 686 ft 18 kts 196°
2026-05-05 22:15 60.19766 11.08811 686 ft 16 kts 108°
2026-05-05 22:15 60.19732 11.09045 686 ft 17 kts 106°
2026-05-05 22:15 60.19702 11.09251 686 ft 10 kts 106°
2026-05-05 22:15 60.19681 11.09329 686 ft 4 kts 167°
2026-05-05 22:16 60.19644 11.09309 686 ft 6 kts 198°
2026-05-05 22:16 60.19613 11.09291 686 ft 2 kts 196°
2026-05-05 22:16 60.19595 11.09281 686 ft 2 kts 196°
2026-05-05 22:16 60.19590 11.09278 686 ft 0 kts 196°
2026-05-05 22:17 60.19589 11.09278 686 ft 0 kts 196°